Tracking 18840 objects as of 18-November-2017
HD Live streaming from Space Station
objects crossing your sky now

CZ-3B DEB

Track CZ-3B DEB now!


NORAD ID: 42458
Int'l Code: 2010-042Z
Perigee: 853.1 km
Apogee: 43,238.6 km
Inclination: 30.4 °
Period: 794.6 minutes
Semi major axis: 28416 km
RCS: Unknown
Launch date: September 4, 2010
Source: People's Republic of China (PRC)
Launch site: Xichang Space Center, China (XSC)

Note: This is SATELLITE DEBRIS
aabbcc
Your satellite tracking list
Your tracking list is empty




NASA's NSSDC Master Catalog

Two Line Element Set (TLE):
1 42458U 10042Z   17319.00266784 -.00000362  00000-0  39097-2 0  9996
2 42458  30.4156 296.6214 7457826 112.8633 337.1927  1.81233809 19598
Source of the keplerian elements: AFSPC